[Date Prev][Date Next][Thread Prev][Thread Next] - [Date Index][Thread Index][Author Index]
2 Line ISS Keps 5-18
- Subject: [sarex] 2 Line ISS Keps 5-18
- From: "Dave Larsen PhD" <doc@xxxxxxxxxxx>
- Date: Tue, 18 May 2004 04:31:55 -0700
ISS
1 25544U 98067A 04139.28417046 .00011759 00000-0 10234-3 0 8017
2 25544 51.6256 118.1010 0010822 147.0337 355.9139 15.69489315313628
----
Via the sarex mailing list at AMSAT.ORG courtesy of AMSAT-NA.
To unsubscribe, send "unsubscribe sarex" to Majordomo@amsat.org
AMSAT Home